Temperature
18 18 18 18 18 18 18 18 18 18 18 18 18 18 18 18 18 18 18 18 18 18 18 18 18 18 18 18 18 18 18 17 17 17 17 17 17 18 17 18 18 18 18
18 18 18 18 18 18 18 18 18 18 18 18 18 18 18 18 18 18 18 18 18 18 18 18 18 18 18 18 17 17 17 17 17 17 17 17 17 17 17 17 17 18 18
18 18 18 18 18 18 18 18 18 18 18 18 18 18 18 18 18 18 18 17 18 18 17 17 18 18 17 17 17 17 17 17 17 17 17 17 17 17 17 17 17 17 17
18 18 18 18 18 18 18 18 18 18 17 17 17 18 18 18 17 17 17 17 17 17 17 17 17 17 17 17 17 17 17 17 17 17 17 17 17 17 17 17 17 17 17
18 18 18 18 18 18 18 18 18 17 17 17 17 18 17 17 17 17 17 17 17 17 17 17 17 17 17 17 17 17 17 17 17 17 17 17 17 17 17 17 17 17 17
18 18 18 18 18 18 18 17 17 17 17 17 17 17 17 17 17 17 17 17 17 17 17 17 17 17 17 17 17 17 17 17 17 17 17 17 17 17 17 17 17 17 17
18 18 18 18 18 18 17 17 17 17 17 17 17 17 17 17 17 17 17 17 17 17 17 17 17 17 17 17 17 17 17 17 17 17 17 16 16 17 16 16 17 17 17
18 18 18 18 18 17 17 17 17 17 17 17 17 17 17 17 17 17 17 17 17 17 17 17 17 16 16 16 16 16 16 16 16 16 16 16 16 16 16 16 17 16 16
18 18 18 18 18 17 17 17 17 17 17 17 17 17 17 17 17 16 17 17 17 17 16 16 16 16 16 16 16 16 16 16 16 16 16 16 16 16 16 16 16 16 16
18 18 18 18 17 17 17 17 17 17 17 17 17 16 16 16 16 16 16 16 16 16 16 16 16 16 16 16 16 16 16 16 16 16 16 16 16 16 16 16 16 16 16
18 18 18 18 17 17 17 17 17 17 17 16 16 16 16 16 16 16 16 16 16 16 16 16 16 16 16 16 16 16 16 16 16 16 16 16 16 16 16 16 16 16 16
18 18 18 18 17 17 17 17 17 17 16 16 16 16 16 16 16 16 16 16 16 16 16 16 16 16 16 16 16 16 16 16 16 16 16 16 16 16 16 16 16 16 16
18 18 18 18 17 17 17 17 17 17 16 16 16 16 16 16 16 16 16 16 16 16 16 16 16 16 16 16 16 16 16 16 16 16 15 16 16 15 15 15 15 15 15
18 18 18 18 17 17 17 17 17 16 16 16 16 16 16 16 16 16 16 16 16 16 16 16 15 15 15 15 15 15 15 15 15 15 15 15 15 15 15 15 15 15 15
18 18 18 18 17 17 17 17 17 16 16 16 16 16 16 16 16 16 16 16 16 15 15 15 15 15 15 15 15 15 15 15 15 15 15 15 15 15 15 15 15 15 15
18 18 18 18 17 17 17 17 17 16 16 16 16 16 16 16 16 16 16 16 15 15 15 15 15 15 15 15 15 15 15 15 15 15 15 15 15 15 15 15 15 15 15
18 18 18 18 17 17 17 17 16 16 16 16 16 16 16 16 16 16 16 16 15 15 15 15 15 15 15 15 15 15 15 15 15 15 15 15 15 14 14 14 14 14 14
18 18 18 17 17 17 17 17 16 16 16 16 16 16 16 16 16 16 16 15 15 15 15 15 15 15 15 15 15 14 14 14 14 14 14 14 14 14 14 14 14 14 14
18 18 18 17 17 17 17 16 16 16 16 16 16 16 16 16 16 16 16 15 15 15 15 15 15 15 15 14 14 14 14 14 14 14 14 14 14 14 14 14 14 14 14
18 18 18 17 17 17 17 16 16 16 16 16 16 16 16 16 16 16 16 15 15 15 15 15 15 15 14 14 14 14 14 14 14 14 14 14 14 14 14 13 14 14 14
18 18 17 17 17 17 17 16 16 16 16 16 16 16 16 16 16 16 15 15 15 15 15 15 15 14 14 14 14 14 13 13 13 13 13 13 13 13 13 13 13 13 13
18 18 18 17 17 17 16 16 16 16 16 16 16 16 16 16 16 16 15 15 15 15 15 15 15 14 14 14 14 14 13 13 13 13 13 13 13 13 13 13 13 13 13
18 18 17 17 17 17 16 16 16 16 16 16 15 15 15 16 16 16 15 15 15 15 15 15 15 14 14 14 14 14 14 13 13 13 13 13 13 13 13 13 13 13 13
18 17 17 17 17 17 16 16 16 16 16 16 16 15 15 15 15 15 15 15 15 15 15 15 15 14 14 14 14 14 14 14 13 12 12 12 12 12 13 13 12 12 12
18 17 17 17 17 16 16 16 16 16 16 16 15 15 15 15 15 15 15 15 15 15 15 15 15 14 14 14 14 14 14 14 14 13 12 12 12 12 12 12 12 12 12
17 17 17 17 17 16 16 16 16 16 16 15 15 15 15 15 15 15 15 15 15 15 15 15 15 15 15 14 14 14 14 14 14 14 13 12 12 12 12 12 12 12 12
Wind_Speed
1 3 8 9 8 9 9 10 10 9 9 10 10 10 10 10 10 10 10 10 10 10 10 10 10 10 10 10 10 10 10 10 10 10 10 9 8 9 9 9 8 7 8
6 6 9 9 9 9 9 9 10 10 10 10 10 10 9 10 10 10 10 9 9 9 9 9 9 9 9 9 10 10 10 10 10 10 10 9 9 9 9 9 9 8 8
7 8 9 9 9 9 9 9 9 10 10 9 9 9 9 9 9 9 9 9 9 9 9 9 9 8 8 9 9 9 10 10 10 10 9 7 8 9 9 9 9 9 8
9 9 9 10 10 9 9 9 9 9 9 9 9 9 8 8 8 8 8 9 9 9 9 9 8 8 8 8 9 9 10 10 11 9 8 7 6 9 9 9 9 9 8
8 9 10 11 10 9 9 9 8 8 8 9 8 8 8 8 8 8 8 9 9 9 8 8 8 8 8 8 9 10 11 11 11 10 8 7 6 9 10 9 9 9 9
7 8 10 11 10 9 9 8 8 8 8 8 8 8 8 8 8 8 8 8 8 8 8 8 8 9 9 10 10 11 11 11 10 9 7 7 7 9 10 9 9 9 8
7 7 9 10 10 10 9 8 8 8 7 7 7 7 7 7 8 7 7 8 8 8 8 8 9 9 10 11 11 11 11 11 10 8 7 7 8 10 10 9 9 9 9
7 7 8 10 10 9 9 8 8 7 7 6 6 6 6 6 7 7 7 8 8 8 8 8 9 10 11 11 11 12 11 10 9 8 7 7 9 9 9 9 9 9 9
7 6 6 7 8 8 9 8 7 7 6 6 6 6 6 6 6 7 7 7 8 8 8 9 10 10 11 11 12 12 12 12 9 7 7 7 8 9 9 9 9 9 9
5 5 5 6 6 6 6 7 7 7 6 5 5 5 5 5 6 6 6 7 8 8 8 9 10 10 10 11 11 12 12 11 9 8 6 7 9 9 9 9 9 9 9
4 4 5 5 5 5 5 6 6 6 5 4 4 5 5 4 4 5 6 6 7 8 8 8 9 10 10 10 11 11 10 9 9 7 6 8 9 9 9 10 9 10 10
4 4 5 5 5 5 5 4 3 3 3 3 4 4 5 5 4 5 5 6 6 6 7 8 8 9 9 8 9 10 9 9 7 6 7 9 9 9 10 10 10 10 10
5 5 4 4 5 5 3 3 2 2 3 3 4 5 5 4 4 5 4 4 6 7 7 7 7 7 8 7 8 9 9 8 7 7 8 10 10 10 10 10 10 10 11
4 4 4 4 4 4 4 3 3 2 3 3 4 5 5 3 3 4 3 4 5 6 6 6 6 7 8 8 9 9 9 8 8 7 8 10 10 10 11 10 10 11 12
5 4 4 5 4 3 3 2 3 2 3 4 4 5 6 4 3 3 3 4 5 6 6 5 6 6 6 7 8 9 8 8 8 8 9 10 11 11 11 10 11 12 13
5 5 4 5 4 4 3 2 2 3 3 4 4 5 7 6 5 4 4 4 4 6 7 6 6 6 6 6 7 7 7 8 8 8 9 10 11 12 12 12 12 12 13
5 4 4 5 4 4 3 3 3 3 4 3 3 5 7 7 6 6 4 3 4 7 8 7 7 7 6 6 6 6 6 7 7 8 9 9 10 12 12 13 13 13 13
5 5 4 5 4 3 3 2 2 3 3 3 4 5 6 8 8 7 4 4 6 7 7 5 4 5 5 5 5 4 5 5 6 7 8 9 9 9 12 14 14 14 14
5 5 5 4 4 3 3 3 3 3 3 3 4 4 6 8 9 7 5 5 8 6 5 5 4 5 5 5 5 4 4 4 4 6 6 7 8 9 10 12 13 14 13
5 6 5 4 4 3 3 3 3 3 2 3 3 4 6 7 9 8 6 6 7 5 5 5 5 4 4 4 6 5 4 4 4 4 4 5 7 8 9 10 10 10 12
5 5 5 4 3 3 2 2 2 1 1 1 2 5 6 7 9 7 5 5 5 5 6 6 5 5 4 4 5 5 5 5 5 3 4 5 5 6 8 9 9 9 9
5 5 5 4 3 3 2 2 2 2 1 1 2 3 5 7 8 7 6 5 5 5 6 6 5 3 2 2 3 3 3 4 4 4 3 3 4 5 6 7 8 8 8
5 5 5 4 3 3 3 3 3 3 2 2 1 1 2 5 6 7 7 6 6 6 6 6 6 5 3 1 2 4 4 2 0 3 3 3 3 3 4 6 7 7 7
4 4 4 4 4 3 4 4 4 3 2 2 2 1 1 3 5 6 7 7 6 5 6 6 5 4 5 3 1 1 2 4 3 1 2 3 3 3 3 5 6 6 7
4 4 3 3 3 3 3 4 4 2 2 1 1 2 1 1 3 4 6 6 6 5 5 5 5 4 4 4 3 2 2 2 3 3 2 1 3 2 2 4 5 5 6
3 4 4 4 3 3 3 3 4 4 3 2 1 2 2 1 1 3 5 5 5 5 5 5 5 5 4 4 3 3 3 3 3 3 3 2 2 1 2 3 3 4 4
Wind_Direction
163 153 126 113 105 100 95 90 91 93 92 89 86 86 86 87 88 88 88 88 88 85 87 85 82 81 80 79 79 80 80 82 88 89 87 85 84 85 89 94 92 87 90
161 146 130 120 111 105 101 94 93 93 93 93 90 90 89 90 90 89 88 87 88 86 86 84 84 82 80 78 76 75 74 78 88 88 83 80 80 80 84 89 91 89 90
144 142 134 126 119 113 108 100 98 96 94 94 92 93 93 93 93 92 90 89 88 87 88 87 84 82 80 76 74 74 74 76 82 85 81 73 77 79 82 86 89 87 85
142 143 137 131 126 119 114 108 103 102 100 96 93 94 95 94 93 94 94 91 89 89 90 88 83 81 79 76 74 75 76 78 81 80 77 68 72 81 83 84 85 84 84
140 145 143 137 131 125 119 115 112 110 105 100 97 97 98 99 97 96 96 93 92 91 91 89 84 82 79 77 77 78 76 76 78 77 76 69 72 83 84 83 82 81 83
147 153 149 143 137 133 127 122 117 116 112 106 100 100 100 102 101 99 100 97 95 94 94 90 85 84 83 82 78 77 75 80 74 73 69 73 80 84 84 82 81 80 80
157 159 154 149 145 140 135 130 127 122 118 112 106 104 104 104 103 103 104 101 99 99 97 94 91 87 84 82 80 79 78 82 74 73 71 79 87 86 86 82 81 81 81
153 152 155 155 152 149 145 142 137 131 127 120 114 111 111 111 111 108 106 106 103 101 100 97 92 90 85 82 82 84 82 79 74 76 74 78 89 89 86 83 81 80 78
139 136 144 152 153 155 155 151 145 140 137 131 126 124 123 118 118 116 111 111 109 106 104 102 96 91 86 85 84 82 80 75 68 67 75 78 88 90 87 83 79 76 74
137 139 147 145 148 153 154 157 156 152 144 138 135 132 127 122 123 122 118 116 115 111 108 106 99 93 90 88 84 81 79 72 64 62 66 81 86 88 88 86 83 80 76
142 151 151 156 159 160 166 167 161 156 150 135 121 124 119 115 120 128 127 121 120 117 111 105 101 95 89 86 84 81 76 71 64 57 64 84 85 86 88 87 85 82 79
157 165 165 168 167 165 172 166 166 163 153 143 133 125 115 113 122 127 124 118 118 115 106 103 95 89 79 74 80 79 77 72 62 57 68 85 87 88 89 87 84 82 80
165 158 165 164 158 156 161 155 157 164 148 143 144 137 125 113 114 114 110 100 92 90 89 87 81 78 78 79 81 81 81 74 61 59 71 82 87 89 89 85 83 83 82
146 155 158 150 148 152 146 146 152 148 135 135 146 140 127 115 113 115 111 104 94 96 95 88 88 83 84 86 88 86 82 77 65 60 70 81 85 86 87 85 83 84 83
128 134 147 144 146 149 138 145 137 145 146 151 146 145 141 131 130 123 113 106 105 106 100 92 87 85 86 86 91 93 86 81 73 67 66 74 80 83 85 84 84 84 80
133 136 136 132 139 141 142 142 143 143 141 139 148 156 150 141 134 127 113 106 110 114 108 101 98 93 88 88 83 87 88 87 82 76 69 68 75 76 76 78 80 80 79
147 136 138 139 123 130 138 147 142 137 128 132 146 149 144 139 132 127 121 119 119 119 110 100 93 91 92 88 81 80 83 84 86 82 76 70 70 72 75 76 76 78 79
137 136 137 130 119 115 115 129 128 133 128 126 128 130 136 140 139 127 128 128 126 118 112 108 100 92 87 86 82 75 72 76 80 83 80 75 72 71 73 75 74 75 76
134 130 118 111 117 112 103 106 107 112 110 115 121 118 127 137 139 131 134 130 127 116 113 118 104 106 104 96 91 77 64 63 71 86 82 78 78 76 75 75 72 70 73
122 121 116 110 109 107 95 82 79 77 75 91 110 117 127 134 134 130 129 127 123 116 110 113 113 101 104 106 96 76 56 51 59 73 84 83 82 82 79 73 68 68 70
114 116 120 118 114 112 102 96 100 102 93 88 101 121 130 132 131 131 134 128 128 129 135 130 118 105 95 103 89 63 40 40 48 56 68 73 76 84 79 73 69 65 64
136 134 124 122 131 134 138 142 141 134 115 111 94 108 132 132 136 141 141 142 138 132 130 130 126 116 124 123 115 99 59 23 20 33 46 75 73 76 76 76 75 69 63
138 144 140 135 131 126 120 108 90 71 58 57 62 106 138 141 144 145 146 147 150 148 150 152 148 141 158 197 148 137 138 173 18 13 29 55 68 71 70 73 77 75 69
160 152 143 145 133 125 121 123 125 128 152 193 190 165 127 145 148 148 151 152 158 155 158 168 163 155 152 172 181 98 139 147 144 111 13 23 56 74 74 83 79 78 75
155 146 147 146 139 132 129 137 136 127 156 157 139 132 128 150 158 155 158 160 165 167 170 168 160 163 161 164 165 139 104 96 113 134 140 29 37 35 62 83 86 81 81
121 133 139 141 154 151 140 141 144 148 148 141 155 174 190 188 180 174 162 167 171 172 179 176 173 172 173 165 161 154 153 149 156 140 147 147 112 31 43 59 80 86 85
Height
1535 1534 1533 1533 1532 1531 1531 1531 1530 1530 1529 1529 1529 1529 1529 1529 1529 1529 1529 1529 1529 1529 1529 1529 1529 1529 1529 1529 1529 1529 1529 1528 1528 1528 1528 1528 1528 1528 1528 1528 1528 1528 1528
1535 1534 1534 1533 1532 1532 1532 1531 1531 1530 1530 1530 1530 1530 1530 1529 1529 1529 1529 1530 1530 1530 1530 1530 1530 1530 1530 1530 1530 1530 1529 1529 1529 1529 1529 1529 1529 1528 1528 1529 1529 1529 1528
1535 1535 1534 1533 1533 1532 1532 1532 1531 1531 1531 1531 1531 1530 1530 1530 1530 1530 1530 1530 1530 1530 1530 1530 1530 1530 1531 1531 1531 1530 1530 1530 1530 1530 1530 1530 1529 1529 1529 1529 1529 1529 1529
1535 1535 1535 1534 1533 1533 1533 1532 1532 1532 1531 1531 1531 1531 1531 1530 1530 1530 1530 1531 1531 1531 1531 1531 1531 1531 1531 1531 1531 1531 1531 1531 1531 1531 1530 1530 1530 1530 1530 1530 1530 1529 1529
1536 1535 1535 1535 1534 1534 1533 1533 1532 1532 1532 1532 1532 1531 1531 1531 1531 1531 1531 1531 1531 1531 1532 1532 1532 1532 1532 1532 1532 1532 1532 1532 1532 1532 1531 1531 1531 1531 1531 1531 1530 1530 1530
1536 1536 1535 1535 1535 1534 1534 1533 1533 1533 1533 1533 1532 1532 1532 1532 1532 1532 1532 1532 1532 1532 1532 1532 1533 1533 1533 1533 1533 1533 1533 1533 1533 1532 1532 1532 1532 1532 1532 1532 1531 1531 1531
1537 1536 1536 1535 1535 1535 1534 1534 1534 1534 1534 1534 1533 1533 1533 1533 1533 1533 1533 1533 1533 1533 1533 1533 1533 1534 1534 1534 1534 1534 1534 1534 1534 1533 1533 1533 1533 1533 1533 1533 1532 1532 1532
1537 1537 1536 1536 1536 1535 1535 1535 1535 1534 1534 1534 1534 1534 1534 1534 1533 1534 1534 1534 1534 1534 1534 1534 1535 1535 1535 1535 1535 1535 1535 1535 1535 1535 1534 1534 1534 1534 1534 1534 1533 1533 1532
1538 1538 1537 1537 1536 1536 1536 1535 1535 1535 1535 1535 1535 1535 1534 1534 1534 1535 1535 1535 1535 1535 1536 1536 1536 1536 1536 1536 1536 1536 1536 1536 1536 1536 1536 1536 1535 1535 1535 1534 1534 1534 1533
1539 1538 1538 1537 1537 1536 1536 1536 1536 1536 1536 1536 1536 1535 1535 1535 1535 1536 1536 1536 1536 1537 1537 1537 1537 1537 1537 1538 1538 1538 1538 1538 1538 1537 1537 1537 1536 1536 1536 1535 1535 1535 1534
1539 1539 1538 1538 1537 1537 1537 1537 1537 1537 1537 1536 1536 1536 1536 1536 1536 1536 1537 1537 1538 1538 1538 1539 1539 1539 1539 1539 1539 1539 1539 1539 1539 1539 1538 1538 1538 1537 1537 1536 1536 1536 1535
1539 1539 1539 1538 1538 1538 1538 1537 1537 1537 1537 1537 1537 1537 1537 1537 1537 1537 1538 1538 1539 1539 1540 1540 1540 1540 1540 1540 1540 1541 1541 1540 1540 1540 1540 1539 1539 1538 1538 1538 1537 1537 1536
1539 1539 1538 1538 1538 1538 1538 1538 1537 1537 1538 1538 1538 1538 1538 1538 1538 1538 1539 1539 1540 1540 1541 1541 1541 1542 1542 1542 1542 1542 1542 1542 1542 1541 1541 1541 1540 1540 1539 1539 1539 1538 1537
1538 1538 1538 1538 1538 1538 1538 1538 1538 1538 1538 1538 1538 1538 1539 1539 1539 1540 1540 1541 1541 1542 1542 1543 1543 1543 1543 1543 1543 1543 1543 1543 1543 1543 1542 1542 1542 1542 1541 1541 1540 1539 1539
1538 1538 1538 1538 1538 1538 1538 1538 1538 1538 1538 1538 1538 1539 1539 1540 1540 1540 1541 1542 1542 1543 1543 1544 1544 1544 1545 1545 1545 1545 1545 1545 1545 1544 1544 1544 1544 1543 1543 1542 1542 1541 1541
1538 1538 1538 1538 1538 1538 1538 1538 1538 1538 1538 1539 1539 1539 1540 1540 1541 1541 1542 1543 1543 1544 1544 1545 1545 1546 1546 1546 1546 1546 1546 1546 1546 1546 1546 1545 1545 1545 1545 1544 1544 1543 1542
1538 1538 1538 1538 1538 1538 1538 1538 1538 1539 1539 1539 1539 1540 1540 1541 1541 1542 1542 1543 1544 1545 1546 1546 1546 1547 1547 1548 1548 1548 1548 1548 1548 1548 1548 1547 1547 1547 1547 1546 1546 1545 1544
1537 1537 1537 1538 1538 1538 1538 1538 1538 1539 1539 1539 1539 1540 1540 1541 1542 1542 1543 1544 1545 1546 1546 1547 1548 1548 1548 1549 1549 1549 1550 1550 1550 1550 1550 1549 1549 1549 1549 1548 1547 1547 1546
1537 1537 1537 1537 1537 1537 1537 1538 1538 1538 1539 1539 1539 1540 1541 1541 1542 1543 1544 1545 1546 1546 1547 1548 1549 1549 1549 1550 1550 1551 1551 1551 1551 1551 1551 1551 1551 1551 1550 1550 1549 1549 1548
1536 1537 1537 1537 1537 1537 1537 1537 1538 1538 1538 1539 1540 1540 1541 1542 1542 1543 1544 1545 1546 1547 1548 1549 1549 1550 1550 1551 1551 1552 1553 1553 1553 1553 1553 1553 1553 1552 1552 1552 1551 1551 1550
1536 1536 1536 1537 1537 1537 1537 1537 1537 1537 1538 1539 1539 1540 1541 1542 1543 1544 1545 1545 1546 1547 1548 1549 1550 1551 1551 1552 1552 1553 1554 1555 1555 1555 1555 1554 1554 1554 1554 1554 1553 1553 1552
1535 1536 1536 1536 1536 1536 1536 1537 1537 1538 1538 1538 1539 1540 1541 1542 1543 1544 1544 1545 1546 1547 1548 1549 1550 1551 1552 1553 1553 1554 1555 1557 1556 1556 1556 1556 1555 1555 1555 1555 1555 1555 1554
1534 1535 1535 1536 1536 1536 1536 1537 1537 1538 1538 1538 1539 1539 1541 1541 1542 1543 1544 1545 1546 1547 1548 1549 1550 1551 1552 1553 1554 1555 1555 1555 1557 1558 1557 1557 1557 1557 1557 1557 1556 1556 1556
1534 1535 1535 1535 1536 1536 1536 1536 1536 1537 1537 1538 1538 1539 1540 1541 1542 1543 1544 1545 1546 1547 1548 1549 1550 1551 1552 1553 1554 1554 1555 1555 1556 1557 1558 1558 1558 1558 1558 1558 1558 1557 1557
1533 1534 1535 1535 1535 1536 1536 1536 1536 1536 1537 1537 1538 1538 1539 1540 1541 1542 1543 1544 1545 1546 1547 1548 1549 1550 1551 1552 1553 1553 1554 1554 1555 1555 1557 1558 1559 1559 1559 1559 1559 1558 1558
1533 1533 1534 1534 1535 1535 1535 1535 1535 1536 1536 1536 1537 1537 1538 1539 1540 1541 1542 1543 1544 1545 1546 1547 1548 1549 1550 1551 1552 1553 1553 1554 1554 1555 1556 1557 1558 1559 1559 1560 1559 1559 1559